FDX10 KLAX-KSFO

Flight info

Callsign FDX10
Flight time 0h 50m
Altitude 30000
Route SUMMR2 STOKD SERFR SERFR4
Aircraft B77L/H-SDE1E2E3FGHIJ2J3J4J5M1RWXY/LB1D1

Departure

Time 2026-05-07 19:28
Airport Los Angeles International Airport (KLAX)

Arrival

Time 2026-05-07 20:19
Airport San Francisco International Airport (KSFO)
Time Latitude Longitude Altitude Speed Heading
2026-05-07 18:10 33.93396 -118.38903 130 ft 0 kts 174°
2026-05-07 19:16 33.93397 -118.38903 139 ft 1 kts 174°
2026-05-07 19:17 33.93435 -118.38909 125 ft 5 kts 157°
2026-05-07 19:17 33.93458 -118.38936 125 ft 2 kts 91°
2026-05-07 19:20 33.93458 -118.38934 125 ft 1 kts 89°
2026-05-07 19:20 33.93461 -118.38901 125 ft 7 kts 84°
2026-05-07 19:20 33.93493 -118.38857 127 ft 8 kts 14°
2026-05-07 19:21 33.93545 -118.38836 127 ft 8 kts 49°
2026-05-07 19:21 33.93563 -118.38768 126 ft 9 kts 83°
2026-05-07 19:21 33.93570 -118.38696 129 ft 9 kts 83°
2026-05-07 19:21 33.93578 -118.38620 126 ft 10 kts 83°
2026-05-07 19:22 33.93588 -118.38522 130 ft 13 kts 83°
2026-05-07 19:22 33.93600 -118.38406 128 ft 15 kts 83°
2026-05-07 19:22 33.93629 -118.38300 127 ft 3 kts 41°
2026-05-07 19:24 33.93643 -118.38291 124 ft 10 kts 25°
2026-05-07 19:25 33.93728 -118.38288 127 ft 13 kts 354°
2026-05-07 19:25 33.93822 -118.38301 124 ft 14 kts 353°
2026-05-07 19:25 33.93860 -118.38306 127 ft 0 kts 353°
2026-05-07 19:26 33.93861 -118.38306 130 ft 1 kts 353°
2026-05-07 19:27 33.93935 -118.38336 126 ft 15 kts 313°
2026-05-07 19:27 33.93944 -118.38421 127 ft 0 kts 262°
2026-05-07 19:27 33.93938 -118.38476 126 ft 29 kts 262°
2026-05-07 19:27 33.93882 -118.39019 126 ft 100 kts 263°
2026-05-07 19:28 33.93771 -118.40101 128 ft 157 kts 263°
2026-05-07 19:28 33.93629 -118.41484 498 ft 170 kts 262°
2026-05-07 19:28 33.93480 -118.42947 1110 ft 175 kts 261°
2026-05-07 19:28 33.93331 -118.44453 1732 ft 187 kts 263°
2026-05-07 19:29 33.93176 -118.46082 2088 ft 208 kts 264°
2026-05-07 19:29 33.93016 -118.47928 2330 ft 236 kts 265°
2026-05-07 19:29 33.92845 -118.49969 2842 ft 251 kts 265°
2026-05-07 19:29 33.92666 -118.52104 3544 ft 260 kts 265°
2026-05-07 19:30 33.92486 -118.54282 4375 ft 264 kts 265°
2026-05-07 19:30 33.92303 -118.56493 5233 ft 265 kts 264°
2026-05-07 19:30 33.92117 -118.58725 5991 ft 272 kts 264°
2026-05-07 19:30 33.91926 -118.61019 6743 ft 277 kts 264°
2026-05-07 19:31 33.91747 -118.63326 7520 ft 278 kts 267°
2026-05-07 19:31 33.91700 -118.65687 7970 ft 286 kts 271°
2026-05-07 19:31 33.91709 -118.68105 7991 ft 291 kts 271°
2026-05-07 19:31 33.91723 -118.70536 7996 ft 289 kts 271°
2026-05-07 19:32 33.91729 -118.72944 8061 ft 288 kts 270°
2026-05-07 19:32 33.91727 -118.75354 8703 ft 289 kts 270°
2026-05-07 19:32 33.91721 -118.77794 9452 ft 294 kts 271°
2026-05-07 19:32 33.91711 -118.80272 10184 ft 298 kts 271°
2026-05-07 19:33 33.91699 -118.82835 10570 ft 317 kts 271°
2026-05-07 19:33 33.91729 -118.85599 10756 ft 343 kts 273°
2026-05-07 19:33 33.91829 -118.88579 10940 ft 369 kts 274°
2026-05-07 19:33 33.91942 -118.91735 11415 ft 383 kts 273°
2026-05-07 19:34 33.92045 -118.94944 12096 ft 393 kts 273°
2026-05-07 19:34 33.92144 -118.98306 12969 ft 399 kts 273°
2026-05-07 19:34 33.92422 -119.01567 13647 ft 400 kts 286°
2026-05-07 19:34 33.93603 -119.04592 14290 ft 399 kts 306°
2026-05-07 19:35 33.95181 -119.07378 14851 ft 407 kts 305°
2026-05-07 19:35 33.96712 -119.10277 15636 ft 412 kts 304°
2026-05-07 19:35 33.98220 -119.13220 16505 ft 414 kts 304°
2026-05-07 19:35 33.99740 -119.16186 17310 ft 418 kts 304°
2026-05-07 19:36 34.01413 -119.19044 17906 ft 420 kts 315°
2026-05-07 19:36 34.03682 -119.21233 18437 ft 419 kts 328°
2026-05-07 19:36 34.06126 -119.23209 18970 ft 426 kts 328°
2026-05-07 19:36 34.08583 -119.25231 19714 ft 428 kts 327°
2026-05-07 19:37 34.11036 -119.27287 20435 ft 431 kts 327°
2026-05-07 19:37 34.13496 -119.29377 21107 ft 435 kts 326°
2026-05-07 19:37 34.15973 -119.31500 21735 ft 439 kts 326°
2026-05-07 19:37 34.18474 -119.33655 22367 ft 443 kts 326°
2026-05-07 19:38 34.20994 -119.35831 22985 ft 447 kts 326°
2026-05-07 19:38 34.23534 -119.38026 23598 ft 451 kts 326°
2026-05-07 19:38 34.26099 -119.40243 24118 ft 455 kts 326°
2026-05-07 19:38 34.28684 -119.42480 24673 ft 458 kts 326°
2026-05-07 19:39 34.31282 -119.44729 25238 ft 461 kts 326°
2026-05-07 19:39 34.33895 -119.46991 25784 ft 463 kts 326°
2026-05-07 19:39 34.36526 -119.49271 26326 ft 466 kts 326°
2026-05-07 19:39 34.38275 -119.50788 26674 ft 468 kts 326°
2026-05-07 19:40 34.41814 -119.53919 27310 ft 474 kts 322°
2026-05-07 19:40 34.44281 -119.56591 27797 ft 478 kts 317°
2026-05-07 19:40 34.46615 -119.59478 28330 ft 480 kts 315°
2026-05-07 19:40 34.48900 -119.62444 28814 ft 483 kts 314°
2026-05-07 19:41 34.51197 -119.65439 29287 ft 486 kts 314°
2026-05-07 19:41 34.53526 -119.68431 29730 ft 489 kts 315°
2026-05-07 19:41 34.55886 -119.71411 30205 ft 490 kts 315°
2026-05-07 19:41 34.58252 -119.74359 30811 ft 486 kts 315°
2026-05-07 19:42 34.60608 -119.77273 31469 ft 481 kts 316°
2026-05-07 19:42 34.62159 -119.79188 31833 ft 480 kts 316°
2026-05-07 19:42 34.64494 -119.82069 32368 ft 478 kts 316°
2026-05-07 19:42 34.66818 -119.84937 32992 ft 473 kts 316°
2026-05-07 19:43 34.69109 -119.87771 33607 ft 468 kts 316°
2026-05-07 19:43 34.71385 -119.90602 34062 ft 468 kts 316°
2026-05-07 19:43 34.75983 -119.96299 34077 ft 474 kts 316°
2026-05-07 19:44 34.80581 -120.02014 34074 ft 471 kts 316°
2026-05-07 19:44 34.85156 -120.07712 34078 ft 470 kts 316°
2026-05-07 19:45 34.89715 -120.13404 34075 ft 468 kts 316°
2026-05-07 19:45 34.94259 -120.19083 34112 ft 467 kts 316°
2026-05-07 19:46 34.98794 -120.24762 34103 ft 467 kts 316°
2026-05-07 19:46 35.03327 -120.30447 34093 ft 468 kts 316°
2026-05-07 19:47 35.07864 -120.36146 34091 ft 468 kts 315°
2026-05-07 19:47 35.12542 -120.41687 34117 ft 468 kts 319°
2026-05-07 19:48 35.17387 -120.47018 34098 ft 469 kts 319°
2026-05-07 19:48 35.22222 -120.52367 34077 ft 469 kts 319°
2026-05-07 19:49 35.27031 -120.57759 34079 ft 469 kts 319°
2026-05-07 19:49 35.31833 -120.63174 34086 ft 470 kts 319°
2026-05-07 19:50 35.36635 -120.68596 34078 ft 470 kts 319°
2026-05-07 19:50 35.41442 -120.74030 34102 ft 471 kts 319°
2026-05-07 19:51 35.46231 -120.79451 34128 ft 472 kts 318°
2026-05-07 19:51 35.51182 -120.84764 34128 ft 473 kts 323°
2026-05-07 19:52 35.56465 -120.89575 34123 ft 473 kts 325°
2026-05-07 19:52 35.61791 -120.94360 34120 ft 475 kts 324°
2026-05-07 19:53 35.67077 -120.99227 34118 ft 474 kts 324°
2026-05-07 19:53 35.72326 -121.04124 34116 ft 473 kts 323°
2026-05-07 19:54 35.77562 -121.09024 34116 ft 472 kts 323°
2026-05-07 19:54 35.82788 -121.13918 34116 ft 472 kts 323°
2026-05-07 19:55 35.88020 -121.18822 33667 ft 478 kts 323°
2026-05-07 19:55 35.90665 -121.21304 32798 ft 469 kts 323°
2026-05-07 19:55 35.93202 -121.23689 32171 ft 450 kts 323°
2026-05-07 19:56 35.95652 -121.25993 31653 ft 437 kts 323°
2026-05-07 19:56 35.98052 -121.28252 31132 ft 435 kts 323°
2026-05-07 19:56 36.00477 -121.30535 30644 ft 439 kts 323°
2026-05-07 19:56 36.02909 -121.32826 30116 ft 441 kts 323°
2026-05-07 19:57 36.05361 -121.35138 29536 ft 445 kts 323°
2026-05-07 19:57 36.07851 -121.37431 29227 ft 450 kts 326°
2026-05-07 19:57 36.10507 -121.39616 28506 ft 465 kts 328°
2026-05-07 19:57 36.13239 -121.41709 27835 ft 451 kts 329°
2026-05-07 19:58 36.15844 -121.43665 27300 ft 426 kts 329°
2026-05-07 19:58 36.18307 -121.45524 26778 ft 404 kts 329°
2026-05-07 19:58 36.20653 -121.47315 26316 ft 390 kts 329°
2026-05-07 19:58 36.22953 -121.49088 25883 ft 391 kts 329°
2026-05-07 19:59 36.25291 -121.50903 25435 ft 404 kts 328°
2026-05-07 19:59 36.27721 -121.52799 24933 ft 419 kts 328°
2026-05-07 19:59 36.30209 -121.54746 24433 ft 426 kts 328°
2026-05-07 19:59 36.32657 -121.56663 23917 ft 416 kts 328°
2026-05-07 20:00 36.35063 -121.58550 23307 ft 400 kts 328°
2026-05-07 20:00 36.37366 -121.60357 22498 ft 385 kts 328°
2026-05-07 20:00 36.39610 -121.62118 21478 ft 382 kts 328°
2026-05-07 20:00 36.41869 -121.63891 20664 ft 387 kts 328°
2026-05-07 20:01 36.44113 -121.65654 20411 ft 372 kts 328°
2026-05-07 20:01 36.46317 -121.67385 20257 ft 379 kts 329°
2026-05-07 20:01 36.48557 -121.69145 20155 ft 380 kts 329°
2026-05-07 20:01 36.50778 -121.70894 20077 ft 375 kts 328°
2026-05-07 20:02 36.52962 -121.72619 19747 ft 369 kts 328°
2026-05-07 20:02 36.55107 -121.74314 19086 ft 362 kts 328°
2026-05-07 20:02 36.57217 -121.75985 18314 ft 359 kts 328°
2026-05-07 20:02 36.59325 -121.77653 17316 ft 360 kts 328°
2026-05-07 20:03 36.61432 -121.79322 16458 ft 357 kts 328°
2026-05-07 20:03 36.63516 -121.80974 15896 ft 356 kts 328°
2026-05-07 20:03 36.65627 -121.82648 15721 ft 360 kts 328°
2026-05-07 20:03 36.67733 -121.84320 15533 ft 357 kts 328°
2026-05-07 20:04 36.69820 -121.85977 15470 ft 354 kts 328°
2026-05-07 20:04 36.71886 -121.87618 15495 ft 352 kts 328°
2026-05-07 20:04 36.73963 -121.89222 15489 ft 350 kts 333°
2026-05-07 20:04 36.76271 -121.90222 15504 ft 355 kts 348°
2026-05-07 20:05 36.78700 -121.90825 15476 ft 357 kts 349°
2026-05-07 20:05 36.81114 -121.91429 15040 ft 348 kts 348°
2026-05-07 20:05 36.83445 -121.92040 14343 ft 337 kts 348°
2026-05-07 20:05 36.85715 -121.92655 13433 ft 332 kts 347°
2026-05-07 20:06 36.87961 -121.93274 12391 ft 330 kts 346°
2026-05-07 20:06 36.90199 -121.93897 11426 ft 328 kts 346°
2026-05-07 20:06 36.92412 -121.94519 10584 ft 325 kts 346°
2026-05-07 20:06 36.94614 -121.95135 10312 ft 328 kts 346°
2026-05-07 20:07 36.96798 -121.95838 10123 ft 319 kts 342°
2026-05-07 20:07 36.98859 -121.96635 9968 ft 301 kts 340°
2026-05-07 20:07 37.00833 -121.97431 9982 ft 298 kts 340°
2026-05-07 20:07 37.02802 -121.98225 9765 ft 297 kts 340°
2026-05-07 20:08 37.04744 -121.99000 9349 ft 289 kts 340°
2026-05-07 20:08 37.06640 -121.99750 8799 ft 281 kts 340°
2026-05-07 20:08 37.08493 -122.00481 8269 ft 279 kts 340°
2026-05-07 20:08 37.10326 -122.01202 8094 ft 276 kts 341°
2026-05-07 20:09 37.12164 -122.01923 7979 ft 275 kts 340°
2026-05-07 20:09 37.13976 -122.02634 7983 ft 271 kts 341°
2026-05-07 20:09 37.15781 -122.03339 7988 ft 273 kts 340°
2026-05-07 20:10 37.19434 -122.04773 7975 ft 275 kts 341°
2026-05-07 20:10 37.21261 -122.05490 7973 ft 275 kts 340°
2026-05-07 20:10 37.23082 -122.06203 7965 ft 273 kts 340°
2026-05-07 20:10 37.24889 -122.06913 7986 ft 272 kts 341°
2026-05-07 20:11 37.26667 -122.07613 7969 ft 272 kts 340°
2026-05-07 20:11 37.28470 -122.08315 7968 ft 271 kts 340°
2026-05-07 20:11 37.30269 -122.09025 7736 ft 269 kts 340°
2026-05-07 20:11 37.32051 -122.09727 7194 ft 269 kts 340°
2026-05-07 20:12 37.33827 -122.10428 6750 ft 266 kts 340°
2026-05-07 20:12 37.35581 -122.11119 6367 ft 263 kts 340°
2026-05-07 20:12 37.37326 -122.11808 6031 ft 262 kts 340°
2026-05-07 20:12 37.39097 -122.12453 5733 ft 269 kts 342°
2026-05-07 20:13 37.40914 -122.13056 5377 ft 269 kts 343°
2026-05-07 20:13 37.42717 -122.13649 5054 ft 266 kts 343°
2026-05-07 20:13 37.44496 -122.14235 4716 ft 261 kts 343°
2026-05-07 20:13 37.46207 -122.14803 4359 ft 247 kts 344°
2026-05-07 20:14 37.47834 -122.15346 4089 ft 238 kts 343°
2026-05-07 20:14 37.49395 -122.15870 3801 ft 226 kts 343°
2026-05-07 20:14 37.50874 -122.16368 3531 ft 214 kts 343°
2026-05-07 20:14 37.52282 -122.16840 3292 ft 209 kts 342°
2026-05-07 20:15 37.53583 -122.17650 3113 ft 211 kts 312°
2026-05-07 20:15 37.54379 -122.19196 3133 ft 213 kts 297°
2026-05-07 20:15 37.55085 -122.20869 3067 ft 217 kts 297°
2026-05-07 20:15 37.55776 -122.22483 3004 ft 197 kts 298°
2026-05-07 20:16 37.56389 -122.23918 2965 ft 176 kts 297°
2026-05-07 20:16 37.56966 -122.25275 3008 ft 174 kts 297°
2026-05-07 20:16 37.57535 -122.26625 2981 ft 175 kts 297°
2026-05-07 20:16 37.58104 -122.27974 2869 ft 172 kts 297°
2026-05-07 20:17 37.58645 -122.29262 2518 ft 161 kts 296°
2026-05-07 20:17 37.59159 -122.30483 2035 ft 153 kts 297°
2026-05-07 20:17 37.59652 -122.31655 1370 ft 151 kts 297°
2026-05-07 20:17 37.60141 -122.32825 733 ft 148 kts 297°
2026-05-07 20:18 37.60599 -122.33923 356 ft 135 kts 300°
2026-05-07 20:18 37.61025 -122.34928 162 ft 127 kts 300°
2026-05-07 20:18 37.61440 -122.35909 51 ft 123 kts 299°
2026-05-07 20:18 37.61789 -122.36757 28 ft 87 kts 298°
2026-05-07 20:19 37.61986 -122.37224 25 ft 34 kts 297°
2026-05-07 20:19 37.62092 -122.37476 28 ft 32 kts 299°
2026-05-07 20:19 37.62184 -122.37589 27 ft 15 kts
2026-05-07 20:19 37.62273 -122.37566 28 ft 13 kts 330°
2026-05-07 20:20 37.62325 -122.37662 28 ft 13 kts 297°
2026-05-07 20:20 37.62368 -122.37765 26 ft 13 kts 297°
2026-05-07 20:20 37.62411 -122.37869 24 ft 12 kts 298°
2026-05-07 20:20 37.62456 -122.37975 25 ft 14 kts 298°
2026-05-07 20:21 37.62503 -122.38087 26 ft 14 kts 298°
2026-05-07 20:21 37.62550 -122.38199 25 ft 15 kts 298°
2026-05-07 20:21 37.62600 -122.38316 21 ft 15 kts 297°
2026-05-07 20:21 37.62645 -122.38426 27 ft 13 kts 297°
2026-05-07 20:22 37.62684 -122.38518 29 ft 11 kts 298°
2026-05-07 20:22 37.62718 -122.38599 28 ft 10 kts 298°
2026-05-07 20:22 37.62747 -122.38668 31 ft 8 kts 297°
2026-05-07 20:22 37.62771 -122.38725 27 ft 8 kts 297°
2026-05-07 20:23 37.62796 -122.38786 28 ft 8 kts 298°
2026-05-07 20:23 37.62828 -122.38860 29 ft 13 kts 298°
2026-05-07 20:23 37.62880 -122.38985 28 ft 17 kts 298°
2026-05-07 20:23 37.62936 -122.39118 28 ft 17 kts 297°
2026-05-07 20:24 37.63016 -122.39216 28 ft 17 kts 335°
2026-05-07 20:24 37.63121 -122.39258 28 ft 13 kts
2026-05-07 20:24 37.63177 -122.39171 26 ft 14 kts 59°
2026-05-07 20:24 37.63265 -122.39163 24 ft 14 kts 339°
2026-05-07 20:25 37.63355 -122.39152 22 ft 14 kts 42°
2026-05-07 20:25 37.63409 -122.39051 26 ft 14 kts 71°
2026-05-07 20:25 37.63439 -122.38932 22 ft 15 kts 73°
2026-05-07 20:25 37.63499 -122.38823 19 ft 15 kts 33°
2026-05-07 20:26 37.63580 -122.38838 24 ft 11 kts 329°
2026-05-07 20:26 37.63637 -122.38870 23 ft 2 kts 23°
2026-05-07 20:26 37.63642 -122.38852 25 ft 3 kts 72°
2026-05-07 20:26 37.63650 -122.38828 23 ft 3 kts 60°
2026-05-07 20:27 37.63663 -122.38801 24 ft 3 kts 58°
2026-05-07 20:27 37.63665 -122.38797 23 ft 0 kts 58°